Wright-Patt AFB, OH

12:03 AM EDT on June 29, 2017 (GMT -0400)
Wright-Patterson Air Force Base

Weather History for KFFO - November, 2013

Change the Weather History Date:

Thursday, November 21, 2013

  Actual Average Record
Temperature  
Mean Temperature 48 °F -  
Max Temperature 56 °F 48 °F 66 °F (1999)
Min Temperature 40 °F 31 °F 11 °F (2014)
Degree Days  
Heating Degree Days 17    
Moisture  
Dew Point 40 °F    
Average Humidity 74    
Maximum Humidity 93    
Minimum Humidity 53    
Precipitation  
Precipitation 0.13 in - - ()
Sea Level Pressure  
Sea Level Pressure 30.26 in    
Wind  
Wind Speed 4 mph (SE)    
Max Wind Speed 9 mph    
Max Gust Speed -    
Visibility 10 miles    
Events Rain    
Averages and records for this station are not official NWS values.
T = Trace of Precipitation, MM = Missing Value Source: NWS Daily Summary

Daily Weather History Graph

Daily Weather History Graph

Search for Another Location

Airport or City:

Trip Planner

Search our weather history database for the weather conditions in past years. The results will help you decide how hot, cold, wet, or windy it might be!

Date:

Astronomy

Nov. 21, 2013 Rise Set
Actual Time 7:27 AM EST 5:15 PM EST
Civil Twilight 6:58 AM EST 5:45 PM EST
Nautical Twilight 6:25 AM EST 6:18 PM EST
Astronomical Twilight 5:53 AM EST 6:50 PM EST
Moon 8:51 PM EST (11/21) 10:33 AM EST (11/21)
Length of Visible Light 10h 46m
Length of Day
9h 48m
Waning Gibbous, 85% of the Moon is Illuminated
Nov 21
Waning Gibbous
Nov 25
Last Quarter
Dec 2
New
Dec 9
First Quarter
Dec 17
Full

Hourly Weather History & Observations

Time (EST) Temp. Windchill Dew Point Humidity Pressure Visibility Wind Dir Wind Speed Gust Speed Precip Events Conditions
12:58 AM 43.3 °F 38.6 °F 28.6 °F 56% 30.26 in 10.0 mi SE 8.1 mph - N/A   Overcast
1:58 AM 44.4 °F 40.5 °F 28.0 °F 53% 30.27 in 10.0 mi SE 6.9 mph - N/A   Overcast
2:39 AM 44.6 °F 42.2 °F 28.4 °F 53% 30.26 in 10.0 mi SSE 4.6 mph - N/A   Light Drizzle
2:58 AM 43.7 °F - 31.5 °F 62% 30.28 in 10.0 mi Calm Calm - 0.00 in   Light Drizzle
2:59 AM 42.8 °F - 32.0 °F 66% 30.26 in 10.0 mi Calm Calm - N/A   Mostly Cloudy
3:18 AM 44.6 °F - 32.0 °F 61% 30.26 in 10.0 mi Calm Calm - N/A   Light Drizzle
3:58 AM 42.4 °F - 33.3 °F 70% 30.30 in 10.0 mi East 2.3 mph - 0.02 in Rain Light Rain
4:48 AM 41.0 °F - 35.6 °F 81% 30.30 in 8.0 mi Calm Calm - N/A Rain Light Rain
4:58 AM 41.0 °F - 35.6 °F 81% 30.33 in 10.0 mi NE 2.3 mph - 0.04 in   Heavy Drizzle
5:58 AM 40.5 °F 38.4 °F 36.1 °F 85% 30.33 in 10.0 mi East 3.5 mph - 0.03 in   Drizzle
6:58 AM 40.3 °F 36.3 °F 35.6 °F 83% 30.32 in 10.0 mi ESE 5.8 mph - 0.03 in   Drizzle
7:39 AM 41.0 °F - 35.6 °F 81% 30.32 in 10.0 mi Variable 1.2 mph - N/A   Mostly Cloudy
7:58 AM 41.0 °F - 36.0 °F 82% 30.36 in 10.0 mi East 2.3 mph - 0.01 in   Overcast
8:58 AM 41.7 °F 39.8 °F 35.6 °F 79% 30.35 in 10.0 mi East 3.5 mph - N/A   Clear
9:58 AM 45.1 °F 40.8 °F 35.6 °F 69% 30.35 in 10.0 mi SE 8.1 mph - N/A   Mostly Cloudy
10:58 AM 47.8 °F - 36.3 °F 64% 30.33 in 10.0 mi SSE 5.8 mph - N/A   Mostly Cloudy
11:58 AM 51.3 °F - 38.1 °F 61% 30.31 in 10.0 mi South 5.8 mph - N/A   Scattered Clouds
12:58 PM 53.8 °F - 40.6 °F 61% 30.28 in 10.0 mi South 9.2 mph - N/A   Scattered Clouds
1:58 PM 55.0 °F - 42.8 °F 63% 30.24 in 10.0 mi South 6.9 mph - N/A   Partly Cloudy
2:58 PM 56.5 °F - 45.1 °F 66% 30.22 in 10.0 mi South 6.9 mph - N/A   Mostly Cloudy
3:38 PM 55.4 °F - 44.6 °F 67% 30.20 in 10.0 mi SSE 8.1 mph - N/A   Mostly Cloudy
3:58 PM 55.4 °F - 42.8 °F 63% 30.23 in 10.0 mi SSE 5.8 mph - N/A   Scattered Clouds
4:38 PM 53.6 °F - 42.8 °F 67% 30.22 in 10.0 mi South 8.1 mph - N/A   Mostly Cloudy
4:58 PM 53.6 °F - 43.0 °F 67% 30.25 in 10.0 mi South 6.9 mph - N/A   Overcast
5:28 PM 53.6 °F - 42.8 °F 67% 30.23 in 10.0 mi SE 5.8 mph - N/A   Overcast
5:48 PM 53.6 °F - 42.8 °F 67% 30.23 in 10.0 mi South 3.5 mph - N/A   Overcast
5:58 PM 53.1 °F - 43.0 °F 69% 30.26 in 10.0 mi South 3.5 mph - N/A   Overcast
6:58 PM 52.9 °F - 42.8 °F 69% 30.27 in 10.0 mi South 5.8 mph - N/A   Overcast
7:08 PM 51.8 °F - 42.8 °F 71% 30.24 in 10.0 mi South 3.5 mph - N/A   Mostly Cloudy
7:30 PM 51.8 °F - 42.8 °F 71% 30.23 in 10.0 mi SSE 3.5 mph - N/A   Overcast
7:58 PM 51.4 °F - 43.9 °F 75% 30.23 in 10.0 mi SE 2.3 mph - N/A   Clear
8:58 PM 50.9 °F - 44.2 °F 78% 30.23 in 10.0 mi Calm Calm - N/A   Mostly Cloudy
9:53 PM 50.0 °F - 44.6 °F 82% 30.21 in 10.0 mi Calm Calm - N/A   Light Drizzle
9:58 PM 49.5 °F - 45.0 °F 84% 30.23 in 10.0 mi Calm Calm - 0.00 in   Light Drizzle
10:04 PM 50.0 °F - 44.6 °F 82% 30.21 in 10.0 mi SSE 2.3 mph - N/A   Mostly Cloudy
10:12 PM 50.0 °F - 44.6 °F 82% 30.21 in 10.0 mi Calm Calm - N/A   Light Drizzle
10:23 PM 50.0 °F - 44.6 °F 82% 30.21 in 10.0 mi Calm Calm - N/A   Scattered Clouds
10:37 PM 50.0 °F - 46.4 °F 87% 30.21 in 10.0 mi Calm Calm - N/A   Light Drizzle
10:47 PM 48.2 °F - 46.4 °F 93% 30.21 in 10.0 mi Calm Calm - N/A   Overcast
10:52 PM 48.2 °F - 46.4 °F 93% 30.20 in 10.0 mi ENE 1.2 mph - N/A   Light Drizzle
10:58 PM 48.4 °F - 45.7 °F 90% 30.22 in 10.0 mi NE 2.3 mph - 0.00 in   Light Drizzle
11:10 PM 48.2 °F - 44.6 °F 87% 30.21 in 10.0 mi North 2.3 mph - N/A   Mostly Cloudy
11:18 PM 48.2 °F - 44.6 °F 87% 30.20 in 10.0 mi NE 1.2 mph - N/A   Light Drizzle
11:40 PM 50.0 °F - 44.6 °F 82% 30.20 in 10.0 mi Calm Calm - N/A   Overcast
11:58 PM 49.1 °F - 45.7 °F 88% 30.22 in 10.0 mi Calm Calm - 0.00 in   Overcast